Location: Nelson
(47.1935°N, 121.0537°W)
Time: 10:55:34
(UTC+00:00)

Tiangong - Visible Passes

Search period start: 28 November 2022 00:00
Search period end: 08 December 2022 00:00
Orbit: 386 x 393 km, 41.5° (Epoch: 28 November)

Date Brightness Start Highest point End Pass type
(mag) Time Alt. Az. Time Alt. Az. Time Alt. Az.
01 Dec 0.2 02:19:48 10° SSW 02:21:24 16° S 02:21:24 16° S visible
02 Dec 0.4 01:22:33 10° S 01:24:02 13° SSE 01:25:31 10° SE visible
02 Dec 0.8 02:57:37 10° SW 02:58:19 14° SW 02:58:19 14° SW visible
03 Dec -0.4 01:59:42 10° SW 02:02:17 23° SSE 02:02:51 21° SSE visible
04 Dec 0.1 01:01:57 10° SSW 01:04:13 18° SSE 01:06:28 10° ESE visible
04 Dec 0.0 02:37:48 10° WSW 02:39:39 24° SSW 02:39:39 24° SSW visible
05 Dec -0.5 01:39:42 10° SW 01:42:27 27° S 01:44:07 17° SE visible
05 Dec 1.4 03:16:14 10° WSW 03:16:25 11° WSW 03:16:25 11° WSW visible
06 Dec -0.6 02:17:56 10° WSW 02:20:43 28° S 02:20:52 28° S visible
07 Dec -0.5 01:19:39 10° WSW 01:22:28 29° S 01:25:17 10° ESE visible
07 Dec 0.7 02:56:29 10° WSW 02:57:37 16° SW 02:57:37 16° SW visible
